Powered by GoogleTranslate

Occupational Safety and Health Administration OSHA

Alert: Due to routine maintenance on the OSHA website, some pages may be temporarily unavailable.
To report an emergency, file a complaint with OSHA or ask a safety and health question, call 1-800-321-6742 (OSHA).

Accident Search Results

Description, Abstract, KeywordSICNAICSDate RangeOfficeInsp Nr
Keyword: "Compressed By"AllAllAllAllAll

By Date

Results 101 - 120 of 258
Result Page: 1 2 3 4 5 6 7 8 9 10
  # Summary Nr Event Date Report ID Fat SIC Event Description
101 201495785 11/30/2011 0950625 X 173 Diesel Tank Ruptures, Striking And Killing Worker
102 03988.015 11/16/2011 0521700 X Employee Is Struck By Falling Concrete And Killed
103 202470845 08/09/2011 0950643   5169 Employees Sustain Burns And Amputations In Gas Explosion
104 200802627 03/03/2011 0523300   5087 Worker Inflating Tire Fractures Pelvis When Sidewall Fails
105 202089595 03/03/2011 0524700 X 3624 Worker Dies After Being Struck By Compressed Air Valve
106 202626271 07/28/2010 0950633   4522 Employee Is Burned While Filling Propane Gas Cylinders
107 202551594 04/19/2010 0950631   7996 Worker Is Burned From Flash Explosion In Fuel Line
108 201925203 04/07/2010 0626700 X 7999 Employee Is Killed By Drowning While Cleaning Boats
109 200358398 03/05/2010 0453710   7549 Employee Is Injured When Splashed With Oil
110 200033629 03/03/2010 0521700 X 4924 One Employee Is Injured In Pipe Burst, Other Is Killed
111 201763570 02/02/2010 0626600 X 7534 Employee Is Struck By Compressed Air, Later Dies
112 201185311 02/01/2010 0950611   1771 Employee Is Hit By Compressed Air, Fractures Leg
113 201204302 12/01/2009 1054114   2041 Employee'S Fingers Are Amputated Cleaning A Machine
114 202529939 11/24/2009 0950635   3714 Employee'S Finger Is Amputated When Caught Between Parts
115 201573615 10/09/2009 0830500 X 1623 Worker Is Killed From Air Blast From Sprinkler System
116 201363454 10/03/2009 0419400 X 7538 Automotive Mechanic Is Struck And Killed By Suspension Part
117 200358174 08/20/2009 0453710   5084 Compressed Gas Cylinder Ruptures, Amputates Worker'S Legs
118 202529764 06/08/2009 0950635   8069 Employee Fractures Leg After Cart Tips Over Onto Leg
119 201312006 05/13/2009 0213400 X 5084 Employee Dies When Cylinder Explodes
120 201127032 04/28/2009 0950613   2087 Employee'S Hand Is Injured When Caught In Machine

Thank You for Visiting Our Website

You are exiting the Department of Labor's Web server.

The Department of Labor does not endorse, takes no responsibility for, and exercises no control over the linked organization or its views, or contents, nor does it vouch for the accuracy or accessibility of the information contained on the destination server. The Department of Labor also cannot authorize the use of copyrighted materials contained in linked Web sites. Users must request such authorization from the sponsor of the linked Web site. Thank you for visiting our site. Please click the button below to continue.

Close